星链-2618 (STARLINK-2618 )

导读 | 豆包AI

STARLINK-2618是美国太空探索技术公司(SpaceX)星链项目的v1.5版本低轨通信卫星,于2021年5月26日发射升空,目前仍在轨运行。该卫星运行在轨道高度约477公里近地轨道,倾角53.157°,周期约94分钟,属于星链全球互联网星座的组成部分,旨在为全球提供高带宽、低延迟的互联网接入服务,尤其服务偏远网络薄弱区域,具备自主变轨避撞能力,设计寿命5-7年。

基本信息
目录编号:
48693
目录名称:
STARLINK-2618
国际标识:
2021-044BH
轨道中心:
EARTH
卫星名称:
星链-2618
卫星全名:
星链-2618 (STARLINK-2618 )
卫星状态:
在轨 (已飞行1800 天)
发射日期:
2021-05-26 UTC
国别 :
美国 (US)
星等 :
--
轨道信息
数据来源 国际轨道数据
星历时间: 2026-04-30T12:40:24+0800
8小时前
查看轨道信息
半长轴: 6848.852km
偏心率: 0.0001361
轨道倾角: 53.159°
近地点辐角 86.087°
升交点赤经 195.800°
平近点角 274.029°
近地点: 469.782km
远地点: 471.648km
周期: 94.013分钟
每日圈数: 15.317085
详细信息
固有亮度:
5
最大亮度:
2.5
卫星平台:
Starlink v1.5
覆盖范围:
全球
运营商:
太空探索技术公司
运营商所在国:
美国
制造商(研发单位):
太空探索技术公司
制造商所在国:
美国
使用方式:
暂无
卫星简介
星链(Starlink)计划是由太空探索技术公司(SpaceX)提出的一个巨型低轨卫星互联网星座项目,计划在2019年至2024年间在太空搭建由约1.2万颗卫星组成的“星链”网络,其中1584颗将部署在地球上空550千米处的近地轨道,并从2020年开始工作。该卫星仍在工作。
2D轨道图
3D轨道图
轨道高度分析图
轨道倾角分析图
轨道综合分析图
查看轨道综合分析图